Regional Weather Roundup
Issued by NWS State College, PA

Home | Current Version | Previous Version | Graphics & Text | Print | Product List | Glossary On
Versions: 1 2 3 4 5 6 7 8 9 10 11 12 13 14 15 16 17 18 19 20 21 22 23 24 25 26 27 28 29 30 31 32 33 34 35 36 37 38 39 40 41 42 43 44 45 46 47 48 49 50
000
ASUS41 KCTP 030510
RWRCTP

REGIONAL WEATHER ROUNDUP
NATIONAL WEATHER SERVICE STATE COLLEGE PA
100 AM EDT MON AUG 03 2015

Note: "fair" indicates few or no clouds below 12,000 feet with no
significant weather and/or obstructions to visibility.

* = STATION THAT DOES NOT REPORT PRECIPITATION /E.G. RAIN...SNOW...ETC/
    THUNDER OR FOG.

PAZ002>004-007>009-013>016-020>023-029>032-030600-
WESTERN PENNSYLVANIA

CITY           SKY/WX    TMP DP  RH WIND       PRES   REMARKS
ERIE           MOCLDY    78  61  55 SW9G21    29.73R
MEADVILLE      PTCLDY    74  60  61 SW10G24   29.80S
FRANKLIN*      PTCLDY    70  57  64 SW14G23   29.84R
NEW CASTLE     FAIR      74  62  66 S8        29.82F
BEAVER COUNTY  NOT AVBL
BUTLER*        CLEAR     72  59  64 SW9       29.87F
PITTSBURGH INT PTCLDY    74  59  59 SW9       29.86F
PITTSBURGH     CLEAR     72  55  55 S9        29.86F
INDIANA*       CLEAR     70  61  73 SW9       29.91F
LATROBE        NOT AVBL
WASHINGTON CO* NOT AVBL
$$

PAZ004>006-010>012-017>019-024>028-033>037-041-042-045-046-049>053-030600-
CENTRAL PENNSYLVANIA

CITY           SKY/WX    TMP DP  RH WIND       PRES   REMARKS
BRADFORD       MOCLDY    69  60  73 SW8       29.85S
DUBOIS         CLEAR     72  59  63 SW12      29.86F
CLEARFIELD     CLEAR     68  60  75 S8        29.88F
JOHNSTOWN      CLEAR     68  57  68 S12       29.94F
ALTOONA        CLEAR     67  59  75 SW7       29.90F
STATE COLLEGE  PTCLDY    67  61  81 SW5       29.87F
WILLIAMSPORT   PTCLDY    68  61  78 CALM      29.81F
SELINSGROVE    CLEAR     65  63  93 SW3       29.85S
FT INDIANTOWN  CLEAR     64  61  91 E2        29.87F
CAPITAL CITY   CLEAR     73  59  61 W3        29.86F
HARRISBURG     PTCLDY    75  63  66 S9        29.86S
YORK           CLEAR     73  61  65 SW8       29.88F
$$

PAZ038>040-043-044-047-048-054-055-060>062-067>071-030600-
EASTERN PENNSYLVANIA

CITY           SKY/WX    TMP DP  RH WIND       PRES   REMARKS
SCRANTON       CLEAR     71  58  63 CALM      29.85F
MOUNT POCONO   CLEAR     68  57  68 W6        29.91F
ALLENTOWN      CLEAR     68  60  75 CALM      29.86F
QUAKERTOWN*    CLEAR     64  61  88 CALM      29.90S
READING        CLEAR     69  61  75 CALM      29.86F
LANCASTER      CLEAR     66  62  87 NE3       29.87F
COATESVILLE    CLEAR     70  63  78 W3        29.91S
POTTSTOWN      CLEAR     68  62  81 SE3       29.90S
BLUE BELL      CLEAR     66  63  88 CALM      29.88S
DOYLESTOWN     CLEAR     69  58  67 S3        29.89R
WILLOW GROVE   NOT AVBL
NORTH PHILA    PTCLDY    77  60  55 SW6       29.90R
PHILADELPHIA   PTCLDY    77  63  61 SW7       29.89S
$$


USA.gov is the U.S. government's official web portal to all federal, state and local government web resources and services.